Location: Penum?ka
(16.4840°N, 80.5772°E)
Time: 15:39:37
(UTC+00:00)

Delta 198 - Pass Details

Date: 19 May 2025
Orbit: 450 x 933 km, 24.8° (Epoch: 17 June)

Event Time Altitude Azimuth Distance (km) Brightness Sun altitude
Exits shadow 23:31:21 10° 249° (WSW) 2,630 6.1 -8.5°
Reaches altitude 10° 23:31:22 10° 249° (WSW) 2,625 6.1 -8.5°
Maximum altitude 23:37:51 90° 161° (SSE) 914 4.4 -7.0°
Drops below altitude 10° 23:44:00 10° 70° (ENE) 2,497 8.6 -5.7°
Sets 23:46:28 0° 71° (ENE) 3,376 10.3 -5.1°
